Updated20/08/2017 21:55 
 

GeoURL
free counters
Scottish Weather Network UK Weather Network Cumulus Top Weather Sites

Peebles Weather - Advisories

Raw Data, Raw Data Expanded

Ignore low humidity and Dew Point values. Something wrong with the sensor.
Daytime temperatures are in direct sunlight so may be higher than official air temperature values.

Warnings and solar data not updating. Currently under investigation. (27th Oct 2016)

2017/08/20 20:50 EGPH 202050Z 21003KT CAVOK 13/09 Q1021
9.6°C 0.0 mm 0.0 mm 0.0 mm 0.0 mph 0.0 mph 1018.2 hPa 80% X-Ray Solar Flare Level
Planetary K-Index
Planetary K-Index History
Station Warn Rain Snow Flood Wind Ltng Heat Cold Glob Moon Temp Rain 1h Rain Sun Rain 24h Wind 10m Gust Pressure Hum Proton Levels
Lost sensor contact!!!
0.439 m Waning Crescent Cool F0-S F:87 A:31 Kp:3 SSN:33

This Weather Widget is provided by the Met Office

METEOalarm.eu Weather warnings: Lothian & Borders

 No special awareness required

Warning data courtesy of and Copyright © EUMETNET-METEOalarm (http://www.meteoalarm.eu/).
Used with permission.
Time delays between this website and the www.meteoalarm.eu website are possible, for the most up to date information about alert levels as published by the participating National Meteorological Services please use www.meteoalarm.eu

 

XHTML 1.1 | CSS